Regional Weather Roundup
Issued by NWS

Home | Current Version | Previous Version | Graphics & Text | Print | Product List | Glossary On
Versions: 1 2 3 4 5 6 7 8 9 10 11 12 13 14 15 16 17 18 19 20 21 22 23 24 25 26 27 28 29 30 31 32 33 34 35 36 37 38 39 40 41 42 43 44 45 46 47 48 49 50
000
ASUS45 KCYS 300910
RWRWY

WYOMING REGIONAL WEATHER ROUNDUP
NATIONAL WEATHER SERVICE CHEYENNE WY
300 AM MDT THU MAR 30 2017

NOTE:  "FAIR" INDICATES FEW OR NO CLOUDS BELOW 12,000 FEET
WITH NO SIGNIFICANT WEATHER AND/OR OBSTRUCTIONS TO VISIBILITY.

WYZ001-301000-
YELLOWSTONE NATIONAL PARK

CITY           SKY/WX    TMP DP  RH WIND       PRES   REMARKS
LK YELLOWSTONE   N/A     32  32 100 CALM      29.90F
W YELLOWSTONE  NOT AVBL

$$
WYZ002>013-054>058-071-098>099-301000-
NORTHERN WYOMING

CITY           SKY/WX    TMP DP  RH WIND       PRES   REMARKS
JACKSON        CLOUDY    36  36 100 W7        29.90F WCI  30
CODY           FAIR      47  32  56 S9        29.80F
GREYBULL       FAIR      45  33  63 SE6       29.77F
WORLAND        FAIR      42  37  82 CALM      29.79F
SHERIDAN       FAIR      39  35  86 SW3       29.77F
BUFFALO        FAIR      43  30  60 W7        29.80F
GILLETTE       FAIR      41  36  82 S18       29.79F
HULETT         FAIR      43  36  75 SW6       29.82F
NEWCASTLE      FAIR      39  34  81 E12G17    29.86F WCI  32

$$
WYZ014>020-022>026-101>103-301000-
CENTRAL WYOMING

CITY           SKY/WX    TMP DP  RH WIND       PRES   REMARKS
BIG PINEY      FAIR      35  30  82 CALM      29.95F
PINEDALE       PTSUNNY   34  32  93 CALM      29.95F
DUBOIS         PTSUNNY   36  30  80 NW7       29.88F WCI  30
LANDER         FAIR      44  33  65 E9        29.82F
RIVERTON       CLOUDY    45  34  65 SW8       29.84F
CASPER         MOCLDY    38  31  76 W8        29.85S WCI  32
DOUGLAS        FAIR      35  32  88 SE3       29.84F

$$
WYZ021-027>030-104>119-301000-
SOUTHERN WYOMING

CITY           SKY/WX    TMP DP  RH WIND       PRES   REMARKS
EVANSTON       CLOUDY    38  27  64 SW8       29.98F WCI  32
KEMMERER         N/A     36  30  80 SW6       29.98F WCI  31
FORT BRIDGER   CLOUDY    41  32  71 W8        30.00F
ROCK SPRINGS   FAIR      39  29  67 SW13      29.97F WCI  31
DIXON            N/A     35  30  83 E3        30.03F
RAWLINS        CLOUDY    40  29  64 SW9       29.94F WCI  34
SARATOGA       CLOUDY    39  30  70 SW12G20   29.98F WCI  32
LARAMIE        FAIR      33  25  72 SW6       29.90F WCI  28
CHEYENNE       FAIR      35  32  88 SW13      29.87F WCI  26
TORRINGTON     FAIR      37  34  89 E10       29.83F WCI  30
PINE BLUFFS    FAIR      30  28  93 CALM      29.89F

$$



USA.gov is the U.S. government's official web portal to all federal, state and local government web resources and services.